sat.trackr.live / text

‹ back to catalog

STARLINK-35474

NORAD 66437 · 2025-259R

PAYLOAD ACTIVE UNKNOWN

§ Identity

Operator
Country
US
Launch date
2025-11-11
Launch site
AFETR
Launch vehicle
Mass (kg)
RCS (m²)

Purposes: comms

External: N2YO · Heavens-Above · Gunter

§ Orbital elements

Epoch: 2026-09-20T16:46:17.569344Z

Period
94.27 min
Inclination
43.0049°
Eccentricity
0.0001860
Mean motion
15.27588852 rev/d
Perigee alt
481.7 km
Apogee alt
484.3 km
Semi-major
6,861.2 km
B*
5.7200e-4
RAAN
253.1941°
Arg perigee
276.7340°
Mean anomaly
83.3300°
Rev number
4,931

§ Raw data

STARLINK-354741 66437U 25259R   26263.69881446  .00015515  00000+0  57200-3 0  99972 66437  43.0049 253.1941 0001860 276.7340  83.3300 15.27588852 49312

JSON: /api/v1/satellites/66437 · /tle

For live sub-satellite position, see the globe view (requires WebGL).

§ Visibility from observer

Set your observer location to see the next 7 days of passes ≥ 10°. The values pass through the URL so the page stays shareable.

No JS? Fill the form by hand. The geolocation button needs JavaScript.